weather.gov     
National Weather Service

Regional Weather Roundup
NWS Homepage
This page is being discontinued on March 12, 2014.
The same data is available at this site. Please update your bookmarks.
Thank you, and we apologize for the inconvenience.
Please send an email to SR-SRH.Webmaster@noaa.gov with any concerns.


Current Version
Previous Version:    01  02  03  04  05  06  07  08  09  10  11  12  13  14  15  16  17  18  19  20  21  22  23  24  25  26  27  28  29  30  
   31  32  33  34  35  36  37  38  39  40  41  42  43  44  45  46  47  48  49  50  51  52  53  54  55  56  57  58  
[Printable]
814
ASUS46 KSGX 201410
RWRSGX

SAN DIEGO HOURLY WEATHER ROUNDUP
NATIONAL WEATHER SERVICE SAN DIEGO CA
700 AM PDT SAT SEP 20 2014

NOTE: "FAIR" INDICATES FEW OR NO CLOUDS BELOW 12,000 FEET WITH NO
SIGNIFICANT WEATHER AND/OR OBSTRUCTIONS TO VISIBILITY.

CAZ042-043-060-061-PZZ750-775-201500-

GREATER SAN DIEGO AREA

CITY           SKY/WX    TMP DP  RH WIND       PRES   REMARKS
LINDBERGH FLD  CLOUDY    71  61  70 W3        29.93R
POINT LOMA       N/A     67  60  78 CALM        N/A
NATIONAL CITY    N/A     71  64  78 CALM      29.92R
CHULA VISTA      N/A     70  64  82 CALM      29.85R
IMPERIAL BEACH CLOUDY    71  62  73 NW6       29.92R
BROWN FIELD    CLOUDY    69  61  75 CALM      29.92R
MIRAMAR MCAS   CLOUDY    69  60  73 CALM      29.92R
MONTGOMERY FLD CLOUDY    69  61  75 W5        29.92R

$$

NORTH SAN DIEGO COUNTY

CITY           SKY/WX    TMP DP  RH WIND       PRES   REMARKS
CAMP PENDLETON CLOUDY    69  61  75 CALM      29.92R
OCEANSIDE AP   CLOUDY    71  62  73 NE3       29.91R
OCEANSIDE HBR    N/A     69  64  82 NE5       29.94R
VISTA            N/A     67  62  83 CALM      29.90R
CARLSBAD       CLOUDY    69  62  78 CALM      29.92R
DEL MAR          N/A     69  64  85 CALM      29.94R
LA JOLLA SCRIP   N/A     69  64  84 SW2       29.89R
FALLBROOK        N/A     66  65  98 CALM      29.94R
ESCONDIDO        N/A     67  62  84 CALM      29.94R
SAN MARCOS       N/A     67  62  84 CALM      29.89R
POWAY            N/A     67  62  83 CALM      29.93R

$$

EAST SAN DIEGO COUNTY

CITY           SKY/WX    TMP DP  RH WIND       PRES   REMARKS
RAMONA         CLOUDY    64  59  83 CALM      29.95R
SANTEE LAKES     N/A     69  63  81 CALM      29.93R
LA MESA          N/A     69  64  84 CALM      29.86R
JAMUL            N/A     65  61  86 SE3       29.90R
MT. LAGUNA OBS   N/A     59  35  41 E2        29.70R
CAMPO            N/A     52  49  89 NE5       29.94S

$$

ORANGE COUNTY AND THE LOS ANGELES BASIN

CITY           SKY/WX    TMP DP  RH WIND       PRES   REMARKS
JOHN WAYNE AP  CLOUDY    72  62  71 E5        29.92R
LAGUNA BEACH     N/A    N/A  18   0 N3        29.87R
LAKE FOREST FR   N/A     64  58  81 CALM      29.83R
SANTA ANA        N/A     68  65  89 CALM      29.87R
HUNTINGTON BCH   N/A     68  65  89 CALM      29.94R
LOS ALAMITOS   CLOUDY    69  63  82 CALM      29.92R
FULLERTON      CLOUDY    71  61  70 CALM      29.91R
LONG BEACH     CLOUDY    70  63  78 CALM      29.91R
L.A. AP        CLOUDY    69  62  78 E5        29.92R
L.A. DOWNTOWN  CLOUDY    69  62  78 CALM      29.91R

$$

THE INLAND EMPIRE

CITY           SKY/WX    TMP DP  RH WIND       PRES   REMARKS
CORONA         CLOUDY    60  58  93 CALM      29.94R
CHINO          CLOUDY    65  61  87 W5        29.95R
ONTARIO        CLOUDY    66  61  84 W6        29.94R
SAN BERNARDINO PTCLDY    64  57  77 CALM      29.94
RIVERSIDE AP   MOCLDY    64  60  87 W3        29.94R
RIV CYN CREST    N/A     64  64 100 S1        29.90R
MORENO VALLEY    N/A     60  60  97 CALM      29.12S
MARCH ARB      CLEAR     60  58  92 S2        29.95R
HORSETHIEF CYN   N/A     60  54  80 CALM      29.94R
PERRIS           N/A     61  60  96 S2        29.94R
MENIFEE          N/A     62  61  96 S2        30.00R
HEMET EAST       N/A     59  54  82 CALM      29.90R
FRENCH VALLEY  CLOUDY    63  59  88 S5        29.95R
TEMECULA         N/A     64  62  93 CALM      29.92R

$$

SAN BERNARDINO AND RIVERSIDE COUNTY MOUNTAINS

CITY           SKY/WX    TMP DP  RH WIND       PRES   REMARKS
BIG BEAR AP    CLEAR     37  36  93 W3        30.19R
ANGELUS OAKS     N/A     53  38  57 CALM      29.82R
PINE COVE        N/A     56  48  74 CALM      29.76R

$$

SOUTHERN DESERT INCLUDING THE COACHELLA VALLEY

CITY           SKY/WX    TMP DP  RH WIND       PRES   REMARKS
PALM SPRINGS   CLEAR     77  59  53 CALM      29.84R
THOUSAND PALMS   N/A     79  59  49 NW10      29.78R
PALM DESERT      N/A     74  62  64 CALM      28.37S
THERMAL        CLEAR     79  59  50 NW7       29.78R
BLYTHE         CLEAR     80  52  37 CALM      29.81R
IMPERIAL AP    CLEAR     73  61  65 W5        29.78R
EL CENTRO NAS  CLEAR     76  57  51 CALM      29.79R
YUMA AZ        MOCLDY    82  71  69 SE5       29.80R
MEXICALI       CLEAR     75  70  83 SE5       29.80

$$

UPPER DESERT

CITY           SKY/WX    TMP DP  RH WIND       PRES   REMARKS
VICTORVILLE AP CLEAR     63  54  72 S3        29.98R
HESPERIA         N/A     59  52  79 CALM      29.97R
APPLE VALLEY     N/A     57  50  77 CALM      30.06R
PALMDALE       CLEAR     62  50  64 S3        29.96R
LANCASTER      CLEAR     56  46  69 CALM      29.96R
EDWARDS AFB    PTCLDY    60  51  71 S2        29.94R
DAGGETT        CLEAR     68  51  54 W8        29.93R
29 PALMS N     CLEAR     69  52  54 NW6       29.99R
NEEDLES        CLEAR     80  53  39 CALM      29.85R

$$

REGIONAL REPORTS

CITY           SKY/WX    TMP DP  RH WIND       PRES   REMARKS
SANTA BARBARA  MOCLDY    65  61  87 E6        29.91R
SANDBERG       CLEAR     63  48  58 S7        30.05R
MT. WILSON       N/A     59  34  38 E10         N/A
LAS VEGAS NV   MOCLDY    78  42  27 SW6       29.90R
PHOENIX AZ     PTCLDY    82  68  62 NE6       29.86R

$$

OFFSHORE ISLANDS

CITY           SKY/WX    TMP DP  RH WIND       PRES   REMARKS
CATALINA ARPT  CLEAR     59  56  89 S6        29.95R
SAN NICOLAS IS CLOUDY   N/A N/A N/A NW9       29.92R

$$

MARINE AND OFFSHORE BUOY REPORTS

STATION/POSITION SKY/WX   TEMP    WIND        PRES    SWELL
                          AIR SEA DIR/SP/G            HT/PER/DIR
                          (F)     (DEG/KT/KT) (MB)    (FT/S/D)
TANNER BANKS               68 70  330/  6/  8 1013.0R   5/190/15
S CLEMENTE BASIN           69 74  260/  2/  4 1012.9R   5/210/15
SAN NICOLAS IS.               69                N/A     3/180/14
SO. S. ROSA ISLA           65 68  350/ 12/ 14 1012.4R   5/15
W. S. BARBARA CH           62 64  340/ 12/ 14 1011.9R   3/300/10
M. S. BARBARA CH           64 65  210/ 10/ 12 1012.1R
S. MONICA BASIN            69 72  210/  4/  6 1012.3R   3/210/15
S PEDRO CHANNEL               73                N/A     2/180/13
DANA POINT                    71                N/A     2/190/14
CMP PENDLETON NS              70                N/A     2/220/13
OCEANSIDE OFFSHR              71                N/A     2/200/15
TORREY PINES OTR              72                N/A     2/210/13
LA JOLLA 1                 70 67  240/  2/  4 1013.1R
MISSION BAY BUOY              71                N/A     2/220/15
SAN DIEGO BAY                 75              1013.6R

$$





U.S. Dept. of Commerce
NOAA National Weather Service
1325 East West Highway
Silver Spring, MD 20910
E-mail: w-nws.webmaster@noaa.gov
Page last modified: May 16, 2007
NATIONAL WEATHER SERVICE: for Safety, for Work, for Fun - FOR LIFE